Theta_e
350 357 361 361 362 361 360 358 357 357 358 359 359 359 359 361 361 360 360 360 360 358 357 356 355 354 354 356 357 358 359 359 357 353 352 352 352 352 353 350 348 347 352
353 358 361 361 362 362 360 358 357 357 358 359 359 359 359 360 360 360 360 360 360 357 356 357 356 355 352 352 353 355 356 357 356 356 354 351 351 348 353 348 348 346 352
354 356 360 360 363 362 360 358 358 358 357 358 359 360 360 359 359 358 360 360 359 358 357 356 353 352 351 351 351 351 351 352 352 353 354 352 350 352 351 348 348 349 351
353 357 356 362 362 361 360 359 359 358 358 357 358 359 359 359 358 357 357 356 355 354 353 351 349 348 347 346 345 345 345 346 347 349 344 346 349 356 354 351 349 349 350
353 355 355 358 361 360 359 359 360 360 359 357 357 357 358 358 358 357 357 355 354 353 352 351 351 350 349 348 348 348 347 347 347 344 336 335 334 342 358 355 352 350 350
353 355 355 356 360 360 359 359 359 359 359 358 357 356 356 356 357 357 356 355 355 355 354 352 351 351 350 350 348 348 349 349 348 339 340 339 338 342 356 358 355 354 353
351 354 356 360 361 360 359 359 359 359 359 358 358 357 356 356 355 355 356 356 356 356 356 355 353 352 351 349 349 350 350 350 343 340 341 340 337 345 353 360 358 358 355
349 351 352 358 359 359 359 359 359 359 358 357 356 356 355 355 355 355 356 357 357 357 356 356 355 355 353 352 351 351 351 350 347 343 344 344 344 348 359 360 359 357 356
349 348 350 352 354 358 358 358 357 356 356 354 354 354 354 354 354 355 355 355 356 357 357 357 357 355 354 354 353 353 352 351 344 345 346 345 350 359 362 359 352 352 353
343 344 344 349 350 351 351 356 356 355 355 354 355 355 355 354 353 352 353 353 354 355 356 357 357 356 355 355 354 354 352 352 344 342 344 346 351 355 353 354 354 357 358
342 342 343 343 344 347 349 352 353 354 355 354 351 349 347 347 345 348 346 344 350 353 354 354 356 356 355 354 354 353 352 347 342 342 343 349 355 355 357 357 355 353 352
336 339 340 341 343 347 351 346 343 339 339 343 339 338 341 342 340 340 338 344 347 348 349 352 352 355 354 347 345 347 343 341 337 339 342 352 355 353 350 351 351 349 349
334 337 339 336 339 345 343 341 337 335 337 337 337 338 338 339 335 333 334 341 339 344 343 345 344 345 346 343 340 335 338 341 330 332 334 350 350 350 348 348 346 346 346
332 334 337 338 342 341 341 337 333 333 334 335 335 337 335 334 333 329 334 337 336 339 340 340 341 341 342 339 337 334 335 336 330 328 328 344 345 348 345 345 344 345 345
327 328 333 335 336 334 332 329 328 330 330 331 334 337 335 332 329 329 330 335 336 338 337 329 335 340 341 339 339 338 336 332 332 329 325 336 345 345 345 346 345 343 344
322 322 326 331 330 330 328 326 326 327 329 330 331 333 332 329 328 329 329 333 335 340 338 334 339 338 340 339 336 335 332 329 327 324 322 322 334 338 345 343 346 345 343
319 320 321 328 331 330 329 327 326 327 327 325 328 333 333 330 329 327 325 326 334 337 338 340 338 334 338 341 337 338 335 332 329 328 327 322 322 331 339 344 342 345 345
316 316 319 321 323 323 327 328 328 330 330 325 324 323 324 328 328 335 336 336 335 337 336 335 335 336 338 334 334 336 332 330 329 325 323 321 318 318 323 334 340 343 344
315 314 314 314 316 320 323 327 322 321 324 319 317 318 318 319 321 321 323 322 326 329 327 329 330 331 332 330 332 333 332 331 330 330 325 322 320 320 318 324 331 337 344
313 313 313 313 314 316 317 324 320 314 316 314 312 311 312 313 313 312 314 313 315 319 319 321 321 326 328 326 329 329 326 327 327 327 327 326 324 321 320 322 323 329 335
310 309 309 309 309 311 312 313 317 310 310 309 308 307 307 310 308 306 306 306 307 309 311 312 316 319 324 321 325 323 323 325 323 320 322 321 323 321 320 319 319 319 322
308 308 307 306 306 307 306 306 307 306 306 305 303 303 304 306 307 305 303 304 304 304 304 306 309 311 315 318 317 315 315 317 318 321 321 320 317 319 320 319 319 318 319
306 306 305 305 304 304 303 303 302 302 302 300 300 300 301 304 305 305 303 303 302 301 301 302 304 305 306 313 315 315 313 311 312 317 316 316 315 314 315 317 317 318 318
305 305 304 303 302 302 301 299 297 296 296 298 297 298 299 302 302 304 303 301 300 299 299 300 305 302 302 303 309 318 314 316 311 309 314 314 313 312 311 313 314 316 315
304 302 302 301 300 300 299 298 296 295 296 297 297 297 297 299 300 302 302 301 300 300 300 300 301 301 301 302 302 305 306 308 310 310 307 309 312 311 314 313 311 310 312
302 301 300 299 298 298 298 297 296 295 295 295 295 295 297 297 298 300 302 300 301 300 301 302 302 301 301 301 301 301 303 304 302 304 304 305 307 306 307 309 308 312 310
Wind_Speed
3 2 5 9 11 13 13 13 13 13 12 12 13 13 13 12 11 11 10 10 9 9 8 7 7 7 6 6 6 6 7 8 10 10 9 8 7 7 8 10 11 7 11
3 4 5 7 9 12 13 13 12 12 11 11 11 11 12 11 11 9 9 8 7 8 7 6 6 5 5 4 4 4 5 5 2 7 9 7 6 3 10 10 11 8 11
6 6 5 7 10 11 11 12 12 11 11 9 9 9 9 9 9 8 7 6 6 6 5 4 4 4 3 3 3 3 3 3 3 4 4 2 2 5 8 8 11 11 11
7 4 4 7 9 11 10 10 10 10 10 8 7 7 7 7 7 7 6 6 5 4 4 3 3 2 2 1 2 2 2 3 3 4 3 3 4 8 9 9 10 11 11
5 6 5 8 9 11 11 9 8 8 9 8 6 5 5 5 4 4 4 3 3 2 2 2 2 3 2 2 2 3 3 3 3 3 3 4 4 5 12 11 10 11 12
5 4 8 11 9 11 11 9 9 8 8 7 6 4 3 3 3 3 3 2 1 1 2 3 3 4 5 5 5 5 5 5 4 2 4 5 5 8 9 13 12 11 11
5 4 6 7 6 7 9 8 8 8 7 6 5 4 2 2 3 4 5 6 5 6 6 6 6 7 6 6 6 6 7 6 3 4 4 5 6 10 11 13 12 12 12
6 6 6 9 8 7 7 7 7 6 6 5 5 3 3 4 5 7 8 8 9 9 9 9 9 8 8 8 8 8 8 7 4 5 6 5 8 10 13 13 10 10 12
10 10 9 9 10 10 11 10 9 8 7 6 4 5 5 4 5 7 9 10 11 11 11 10 9 9 10 10 11 11 11 10 5 4 6 4 7 8 14 11 9 10 11
2 2 4 8 9 6 3 9 8 7 7 6 5 5 5 6 7 9 10 10 14 13 12 11 10 11 11 11 12 13 14 14 7 5 4 4 8 9 11 11 11 12 12
5 6 6 5 5 4 4 5 7 8 7 7 6 7 4 3 3 3 4 2 7 14 15 14 12 11 11 10 13 14 16 4 5 4 4 9 10 9 9 10 10 9 8
7 7 6 6 4 3 4 4 4 5 3 3 4 4 5 3 2 2 6 6 6 10 16 17 13 10 12 4 4 9 3 4 4 3 3 6 4 7 8 8 8 8 7
6 8 10 6 4 4 4 2 2 2 2 1 5 1 2 4 1 2 3 2 3 8 4 8 9 6 6 3 4 3 5 4 3 3 2 4 6 8 9 9 8 8 8
10 9 7 4 5 6 3 2 2 3 3 3 4 7 5 2 0 3 1 1 3 6 10 9 4 10 8 4 5 5 5 4 2 3 4 6 7 9 9 8 9 9 9
12 11 10 7 8 5 5 3 4 5 4 4 3 3 1 3 2 4 4 4 5 7 7 6 7 7 6 5 6 5 7 6 5 3 3 7 8 8 9 9 10 11 10
9 10 9 11 8 6 5 5 4 4 3 6 6 6 6 4 4 4 4 5 3 1 4 6 4 6 5 6 8 7 5 5 5 5 3 5 10 9 10 12 13 12 12
7 7 10 8 9 7 5 4 4 3 4 6 5 6 6 5 4 4 4 5 5 6 6 7 6 4 4 6 9 5 4 6 5 6 5 4 5 10 10 12 13 14 15
7 9 8 8 9 8 7 7 7 6 7 9 9 9 14 13 13 9 6 6 6 4 6 5 4 5 7 4 4 5 4 5 6 5 4 4 4 4 7 12 13 16 16
9 10 12 12 12 12 12 10 11 11 9 8 9 9 13 13 13 10 8 8 9 7 7 7 5 4 4 3 4 5 4 5 6 5 6 6 5 5 3 7 10 10 12
11 13 14 12 15 12 7 5 6 8 9 8 8 9 12 9 11 9 8 9 9 7 8 8 8 6 3 4 5 5 4 5 5 4 5 4 4 3 3 4 4 5 8
12 15 14 15 13 10 7 5 4 5 6 6 7 9 10 8 10 9 6 7 8 7 8 9 6 6 3 8 4 4 4 6 4 4 3 4 5 5 5 5 3 3 3
10 11 13 12 12 9 8 4 4 3 3 3 4 7 7 8 9 9 7 7 6 5 5 6 5 4 3 5 3 4 4 4 3 4 3 3 4 3 3 3 4 4 3
10 10 10 9 10 8 6 4 3 3 3 4 6 6 7 8 8 6 6 6 7 6 5 5 4 5 3 3 5 3 3 2 3 0 3 2 2 2 2 2 2 2 2
7 9 10 9 7 7 7 6 7 4 4 4 4 4 6 7 7 7 7 5 5 4 6 5 5 4 3 4 4 2 3 4 3 3 1 2 1 2 1 2 2 4 4
6 7 6 7 7 6 7 6 4 4 3 3 4 7 6 7 7 8 7 7 6 4 5 5 6 5 3 3 2 4 3 2 4 5 5 3 2 3 3 2 2 2 5
6 6 6 7 5 6 6 6 5 5 5 5 5 5 5 4 5 6 8 6 6 6 6 6 6 5 5 4 3 4 4 3 3 3 3 4 1 2 2 3 3 3 3
Wind_Direction
360 18 111 128 114 104 96 92 89 88 87 87 90 90 88 88 96 103 107 107 112 114 105 99 91 86 85 89 93 97 103 106 112 120 130 133 139 147 148 145 137 140 135
70 45 105 120 106 107 103 100 97 95 91 90 89 91 91 91 93 95 102 102 103 106 107 106 97 90 92 93 94 89 85 80 106 136 138 134 141 144 176 156 150 154 144
76 33 29 114 106 96 97 103 102 100 100 99 98 96 94 93 91 86 78 79 88 91 90 79 75 89 102 107 95 74 64 56 18 354 16 130 186 166 162 161 159 158 154
99 75 68 86 100 101 99 100 103 108 107 105 102 100 98 89 78 72 70 73 70 67 61 55 58 68 66 70 64 34 22 8 348 323 342 297 236 202 188 183 176 167 165
114 119 121 122 104 101 100 100 100 101 102 103 100 88 80 76 66 63 65 74 89 85 59 15 353 339 335 340 347 338 335 341 327 349 287 267 258 263 198 193 193 184 175
138 112 129 132 125 120 120 122 119 113 104 96 86 74 51 33 6 349 343 336 312 293 293 299 300 303 308 314 319 318 319 322 335 312 290 277 265 253 231 193 199 200 195
80 66 77 76 80 110 117 120 113 99 94 95 89 76 43 3 316 302 300 300 299 294 291 291 290 291 293 301 302 302 308 316 322 283 274 271 263 252 237 190 202 210 203
128 139 123 125 126 126 114 102 100 104 93 78 74 59 29 353 332 312 302 299 298 298 296 295 294 294 294 292 290 296 290 286 287 271 275 268 274 255 197 180 198 214 212
167 156 160 166 155 152 146 141 138 134 128 114 66 37 12 348 325 317 309 303 301 297 293 290 288 288 288 292 293 293 292 285 261 253 272 272 273 178 169 173 193 214 216
166 26 181 162 154 139 139 133 135 138 137 116 80 45 16 353 339 336 334 315 300 284 272 265 273 281 287 295 294 291 290 280 263 250 244 249 226 183 174 177 196 214 210
36 22 8 6 22 78 92 80 63 36 21 37 78 75 31 351 315 242 167 298 325 320 281 270 260 265 276 282 286 296 292 271 278 262 253 233 212 208 192 192 196 201 211
23 14 31 34 5 102 97 98 90 84 51 120 143 162 127 135 187 174 320 333 68 32 358 308 268 264 273 258 262 285 292 293 286 277 285 251 206 190 197 199 199 208 211
24 18 12 21 11 67 74 57 58 82 89 226 265 203 113 112 271 356 266 353 350 21 30 346 353 313 276 262 263 265 269 254 273 287 295 247 221 221 210 209 210 210 211
35 22 2 3 38 67 73 82 43 27 359 16 339 353 5 7 12 301 285 343 346 15 14 9 357 287 283 265 276 282 275 264 241 256 279 246 232 232 235 231 225 225 216
39 14 16 8 47 39 55 13 28 26 15 334 23 15 279 351 324 322 356 352 40 49 37 320 301 299 289 275 247 259 277 265 250 248 270 253 264 263 267 256 246 241 234
44 24 10 23 22 24 36 11 37 32 330 27 17 11 8 358 4 358 358 347 357 303 176 227 253 267 305 302 298 265 256 276 264 245 242 259 271 273 258 259 258 252 250
34 34 25 34 17 13 2 4 42 29 39 36 12 357 351 344 324 340 338 323 311 303 270 222 241 277 265 224 249 249 243 247 247 260 255 253 265 272 273 255 257 259 252
47 46 43 32 36 26 5 20 28 30 44 33 24 17 13 15 5 354 353 1 349 317 347 347 313 258 250 255 273 269 286 289 285 276 270 262 257 258 258 262 262 262 256
57 52 41 30 33 35 30 44 32 29 34 31 24 21 12 13 16 14 15 4 353 14 15 358 335 345 326 332 294 275 276 276 275 276 273 267 268 267 255 257 264 259 249
51 52 50 42 30 27 19 34 44 32 28 28 27 23 14 16 16 13 6 4 358 13 10 4 351 353 334 343 310 301 297 293 285 275 289 320 314 7 27 63 60 62 84
50 51 42 41 30 29 20 358 21 47 18 17 17 10 9 9 13 14 6 0 2 8 360 359 336 351 331 357 312 319 276 252 286 337 7 57 27 40 47 67 66 86 56
62 61 56 50 42 34 27 360 18 346 21 12 359 5 5 4 7 8 353 353 354 350 355 357 357 326 310 359 352 275 299 328 21 80 81 90 60 34 45 59 83 74 32
61 62 61 56 50 43 34 21 356 355 351 357 3 1 349 356 358 353 352 346 345 351 346 336 333 347 318 310 341 268 321 304 332 324 53 73 105 98 81 53 28 55 74
67 74 72 61 52 43 25 28 31 25 4 333 321 322 332 342 337 338 342 339 339 336 335 325 331 313 318 300 308 310 310 297 277 295 38 50 31 49 37 333 345 357 360
81 75 75 70 53 42 45 43 37 23 334 312 329 339 338 334 332 334 336 335 337 331 313 304 313 316 307 298 306 330 307 290 274 264 279 278 331 258 284 273 318 24 353
80 85 77 73 49 35 38 34 38 22 344 346 335 333 329 318 314 329 334 329 326 321 320 316 307 299 289 263 260 254 251 252 264 268 290 277 255 321 313 342 360 33 17